Time_in_sec,Mx,My,Mz
1314275130.50471044,-0.36921781,0.48452565,-0.80713862
1314275130.55645537,-0.37086031,0.48290947,-0.80761927
1314275130.60844374,-0.37135020,0.48315728,-0.80671859
1314275130.65664935,-0.37142932,0.48302203,-0.80579156
1314275130.70752597,-0.37128142,0.48251447,-0.80564642
1314275130.75557256,-0.36946577,0.48452419,-0.80675399
1314275130.80744648,-0.37107724,0.48403543,-0.80657655
1314275130.85615325,-0.36990964,0.48302463,-0.80756581
1314275130.90852308,-0.37011704,0.48185766,-0.80437863
1314275130.95756483,-0.36987093,0.48412615,-0.80451435
1314275131.00847673,-0.37012476,0.48188356,-0.80677205
1314275131.05644751,-0.37103820,0.48216349,-0.80842149
1314275131.10444903,-0.36905086,0.48565149,-0.80647284
1314275131.15765214,-0.36927304,0.48337841,-0.80593687
1314275131.20447588,-0.37052786,0.48224068,-0.80440491
1314275131.25551653,-0.36947083,0.48313996,-0.80700988
1314275131.29945970,-0.36947274,0.48439962,-0.80688643
1314275131.35646820,-0.36974972,0.48301849,-0.80715781
1314275131.40449500,-0.37096855,0.48338503,-0.80483741
1314275131.45581532,-0.37184522,0.48202085,-0.80607373
1314275131.50763631,-0.37042829,0.48592243,-0.80681938
1314275131.55551577,-0.36963364,0.48453188,-0.80729538
1314275131.60441661,-0.36936802,0.48425364,-0.80515122
1314275131.65581846,-0.37070465,0.48338342,-0.80495524
1314275131.70747066,-0.37068281,0.48161623,-0.80480796
1314275131.75651503,-0.36938411,0.48224187,-0.80566895
1314275131.79945493,-0.37011564,0.48377073,-0.80638671
1314275131.85549116,-0.37008971,0.48351392,-0.80598456
1314275131.90449572,-0.36929423,0.48398766,-0.80394864
1314275131.95546031,-0.37106058,0.48388189,-0.80404878
1314275132.00447106,-0.36928990,0.48451501,-0.80607921
1314275132.05547810,-0.36828035,0.48524854,-0.80496353
1314275132.10600233,-0.37001690,0.48337406,-0.80478299
1314275132.15854335,-0.37045676,0.48237744,-0.80546534
1314275132.20461941,-0.36924845,0.48221594,-0.80340111
1314275132.25644732,-0.37065485,0.48211461,-0.80427831
1314275132.29705024,-0.37011755,0.48503038,-0.80626327
1314275132.35545516,-0.37065074,0.48362496,-0.80402344
1314275132.40455556,-0.36976922,0.48335114,-0.80290759
1314275132.45692420,-0.36959034,0.48397100,-0.80210435
1314275132.50596046,-0.36902437,0.48322937,-0.80406052
1314275132.55664587,-0.36975688,0.48488435,-0.80477935
1314275132.60448527,-0.37105501,0.48209339,-0.80190825
1314275132.65648341,-0.37100783,0.48223472,-0.80336887
1314275132.70445728,-0.36842695,0.48344028,-0.80083758
1314275132.75666189,-0.37013152,0.48256710,-0.79999793
1314275132.80777407,-0.36986718,0.48460472,-0.80212492
1314275132.85558558,-0.36858714,0.48342204,-0.79898554
1314275132.90859246,-0.37010956,0.48281476,-0.79959977
1314275132.95653057,-0.36962757,0.48357588,-0.80050838
1314275133.00846386,-0.36870387,0.48306659,-0.80098355
1314275133.05739522,-0.36879984,0.48406792,-0.80019891
1314275133.10755062,-0.36983675,0.48167810,-0.79970866
1314275133.15559554,-0.36974260,0.48294380,-0.80024439
1314275133.20845461,-0.36979479,0.48242566,-0.79891419
1314275133.25554848,-0.36989239,0.48471102,-0.80026609
1314275133.30466008,-0.36968237,0.48446786,-0.80131572
1314275133.35682154,-0.36857885,0.48344490,-0.80111217
1314275133.40798044,-0.37040448,0.48168895,-0.80013996
1314275133.45645356,-0.37033018,0.48446959,-0.80082101
1314275133.50844097,-0.37087011,0.48296395,-0.80097359
1314275133.55558085,-0.36868083,0.48419553,-0.80045891
1314275133.60445547,-0.37162897,0.48283654,-0.80008548
1314275133.65651464,-0.36997736,0.48233464,-0.80198139
1314275133.70580912,-0.36983362,0.48331457,-0.79945475
1314275133.75648952,-0.36840570,0.48383844,-0.80270040
1314275133.80461693,-0.36888960,0.48433694,-0.80166829
1314275133.85647535,-0.36809918,0.48342645,-0.79988825
1314275133.90446639,-0.37006336,0.48308221,-0.80106133
1314275133.95558739,-0.37048090,0.48336506,-0.80348009
1314275134.00442934,-0.36820695,0.48294336,-0.80175185
1314275134.04447818,-0.36950460,0.48319903,-0.80076444
1314275134.10750961,-0.37024191,0.48349416,-0.80399913
1314275134.15888691,-0.36929548,0.48408940,-0.80168962
1314275134.20751047,-0.36998132,0.48283911,-0.80198538
1314275134.25646424,-0.37106553,0.48451248,-0.80405372
1314275134.29645514,-0.36836445,0.48473647,-0.80416697
1314275134.35555816,-0.37077576,0.48324665,-0.80389482
1314275134.40443492,-0.37110084,0.48285773,-0.80258119
1314275134.45627546,-0.36996797,0.48424619,-0.80385613
1314275134.50826359,-0.37012693,0.48311880,-0.80438858
1314275134.55564904,-0.37010878,0.48588577,-0.80374342
1314275134.60850453,-0.37012699,0.48211139,-0.80451399
1314275134.65420032,-0.37034503,0.48235607,-0.80359775
1314275134.70845771,-0.37104568,0.48299754,-0.80390841
1314275134.75556517,-0.36854827,0.48474720,-0.80497515
1314275134.80445123,-0.36879539,0.48260480,-0.80484039
1314275134.85550380,-0.37145713,0.48453850,-0.80607027
1314275134.90746427,-0.37166667,0.48160890,-0.80313599
1314275134.95471096,-0.37115875,0.48211324,-0.80364245
1314275135.00447440,-0.37065670,0.48438168,-0.80402941
1314275135.05554986,-0.36835852,0.48397979,-0.80416101
1314275135.10444117,-0.37073895,0.48160255,-0.80348170
1314275135.15559077,-0.37011889,0.48412469,-0.80412972
1314275135.20442510,-0.37090939,0.48402777,-0.80603522
1314275135.25558233,-0.36900303,0.48463494,-0.80579787
1314275135.30392957,-0.36919415,0.48449668,-0.80447841
1314275135.35659719,-0.37098756,0.48275900,-0.80523264
1314275135.40857410,-0.37056762,0.48426315,-0.80482101
1314275135.45592380,-0.36972910,0.48236048,-0.80462605
1314275135.50794888,-0.37069657,0.48438931,-0.80469638
1314275135.54859352,-0.36983272,0.48439515,-0.80610937
1314275135.60392451,-0.36903927,0.48411372,-0.80420089
1314275135.65625906,-0.37120345,0.48476627,-0.80406350
1314275135.70392060,-0.36956808,0.48424304,-0.80396616
1314275135.75644827,-0.36911517,0.48261711,-0.80565637
1314275135.79564953,-0.36946309,0.48412147,-0.80449098
1314275135.85646033,-0.36906829,0.48273405,-0.80485696
1314275135.90742922,-0.36913729,0.48435989,-0.80354363
1314275135.95548201,-0.37138849,0.48188087,-0.80524904
1314275136.00844264,-0.36918411,0.48525032,-0.80421758
1314275136.04753590,-0.36932784,0.48427039,-0.80674422
1314275136.10859227,-0.37048063,0.48338944,-0.80574012
1314275136.15653467,-0.37062877,0.48387262,-0.80362523
1314275136.20858216,-0.37077251,0.48289269,-0.80615187
1314275136.25560784,-0.36898518,0.48337224,-0.80565453
1314275136.30850744,-0.37031260,0.48539659,-0.80494779
1314275136.35577202,-0.37143320,0.48453391,-0.80567008
1314275136.40842700,-0.37030590,0.48149154,-0.80531722
1314275136.45568419,-0.36922014,0.48374608,-0.80500609
1314275136.50748730,-0.37011471,0.48263720,-0.80651122
1314275136.54843998,-0.36898607,0.48450577,-0.80553007
1314275136.60745215,-0.36878890,0.48590213,-0.80659264
1314275136.65644670,-0.37032771,0.48325869,-0.80546451
1314275136.70845199,-0.36936405,0.48374918,-0.80514723
1314275136.75552297,-0.37144986,0.48468748,-0.80819792
1314275136.79645753,-0.36956081,0.48439202,-0.80609381
1314275136.85551524,-0.36997178,0.48276022,-0.80637103
1314275136.90838218,-0.36971408,0.48349094,-0.80423480
1314275136.95699382,-0.37068036,0.48441061,-0.80668962
1314275137.00439978,-0.36805746,0.48336586,-0.80600029
1314275137.04743123,-0.37011063,0.48414755,-0.80625629
1314275137.10444832,-0.36836877,0.48642325,-0.80856651
1314275137.15624237,-0.36986402,0.48324332,-0.80450737
1314275137.20455575,-0.37008810,0.48222989,-0.80384803
1314275137.25545216,-0.37135515,0.48378786,-0.80672354
1314275137.30826259,-0.36869025,0.48449805,-0.80511433
1314275137.35647154,-0.36899498,0.48564082,-0.80553901
1314275137.40675616,-0.37025866,0.48264030,-0.80665237
1314275137.45546556,-0.36991295,0.48237118,-0.80543423
1314275137.50447917,-0.36852908,0.48439020,-0.80696535
1314275137.54437184,-0.37107033,0.48315263,-0.80656964
1314275137.60443854,-0.36833930,0.48362276,-0.80615121
1314275137.65680265,-0.36959797,0.48500431,-0.80437237
1314275137.70849180,-0.37056267,0.48363256,-0.80481607
1314275137.75645494,-0.36813810,0.48552206,-0.80708438
1314275137.79650426,-0.37016657,0.48315084,-0.80731559
1314275137.85698867,-0.36968955,0.48353514,-0.80835462
1314275137.90409565,-0.36925501,0.48413053,-0.80554265
1314275137.95698380,-0.37042448,0.48340315,-0.80706632
1314275138.00442910,-0.37008342,0.48378903,-0.80811316
1314275138.05556321,-0.37060225,0.48467198,-0.80761760
1314275138.10459518,-0.36968660,0.48315680,-0.80835164
1314275138.15645385,-0.36903107,0.48312917,-0.80645293
1314275138.20812559,-0.37050620,0.48467806,-0.80827683
1314275138.25708675,-0.36945644,0.48542836,-0.80875421
1314275138.29649901,-0.36924273,0.48465633,-0.80753982
1314275138.35662818,-0.36983144,0.48429340,-0.80836838
1314275138.40445185,-0.36950475,0.48339829,-0.80754548
1314275138.45554876,-0.37003851,0.48415822,-0.80731571
1314275138.50849295,-0.36952868,0.48340288,-0.80794567
1314275138.55649710,-0.37021530,0.48530093,-0.80786604
1314275138.60795140,-0.36957750,0.48454556,-0.80862159
1314275138.65645766,-0.36954358,0.48428723,-0.80808604
1314275138.70858192,-0.37209281,0.48305118,-0.80782366
1314275138.75663614,-0.36947748,0.48404717,-0.80927682
1314275138.79646063,-0.36795512,0.48364702,-0.80878812
1314275138.85611558,-0.37123552,0.48497164,-0.81137812
1314275138.90848303,-0.37085423,0.48416758,-0.80736238
1314275138.95645070,-0.37168002,0.48241591,-0.80779535
1314275139.00780511,-0.36977440,0.48317358,-0.80981904
1314275139.04858160,-0.36942127,0.48506829,-0.81047761
1314275139.10849023,-0.36837146,0.48682597,-0.81082952
1314275139.15545797,-0.36809403,0.48402694,-0.80879885
1314275139.20845270,-0.37021613,0.48343661,-0.81037796
1314275139.25649405,-0.36974713,0.48382244,-0.81155044
1314275139.30763841,-0.37043479,0.48483920,-0.81159729
1314275139.35671639,-0.37007511,0.48481929,-0.81011432
1314275139.40758300,-0.36927509,0.48483732,-0.81259447
1314275139.45980144,-0.37062794,0.48394576,-0.81040525
1314275139.50849462,-0.37045273,0.48509449,-0.81186604
1314275139.54746866,-0.36852252,0.48468965,-0.81135398
1314275139.60842395,-0.36931691,0.48610461,-0.81313801
1314275139.65665388,-0.36984813,0.48444697,-0.81089616
1314275139.70755935,-0.37068388,0.48294905,-0.81146455
1314275139.75647640,-0.36921421,0.48520347,-0.81153023
1314275139.79662585,-0.37021813,0.48368883,-0.81037998
1314275139.85679960,-0.37024969,0.48472676,-0.81304812
1314275139.90443373,-0.37021706,0.48457015,-0.81025350
1314275139.95666027,-0.36946556,0.48354116,-0.80913949
1314275140.00453019,-0.36964408,0.48395309,-0.81207722
1314275140.04446363,-0.37053460,0.48435459,-0.81332749
1314275140.10950971,-0.36834857,0.48594010,-0.81055576
1314275140.15678024,-0.37087485,0.48482561,-0.80989420
1314275140.20454836,-0.36909726,0.48457590,-0.81191772
1314275140.25647211,-0.37097463,0.48434100,-0.81162441
1314275140.30443811,-0.36973116,0.48381940,-0.81128365
1314275140.35556984,-0.37010074,0.48510048,-0.81277651
1314275140.40428400,-0.37047207,0.48343667,-0.81012672
1314275140.45628572,-0.36834100,0.48389938,-0.80841321
1314275140.51155925,-0.36901838,0.48569417,-0.81045926
1314275140.54843545,-0.36969522,0.48431623,-0.81062061
1314275140.60782623,-0.36917430,0.48519585,-0.81086326
1314275140.65668821,-0.37090904,0.48505956,-0.80816978
1314275140.70412040,-0.37087584,0.48495173,-0.80989516
1314275140.75614905,-0.36873162,0.48379928,-0.81042880
1314275140.80443001,-0.36897951,0.48480526,-0.80991870
1314275140.85658097,-0.36966902,0.48408380,-0.81247842
1314275140.90748262,-0.36826706,0.48164296,-0.80972159
1314275140.95645308,-0.36979231,0.48342887,-0.81008786
1314275141.00756693,-0.37012193,0.48570973,-0.81078827
1314275141.04752898,-0.36917832,0.48469290,-0.81099266
1314275141.10449910,-0.36917245,0.48292878,-0.81111217
1314275141.15556836,-0.37192631,0.48435193,-0.81167883
1314275141.20442533,-0.36998317,0.48331499,-0.81102842
1314275141.25647950,-0.36748880,0.48443559,-0.81222355
1314275141.29585195,-0.36967701,0.48408532,-0.81261182
1314275141.35644674,-0.36912218,0.48470661,-0.81231892
1314275141.40810871,-0.37044716,0.48330599,-0.80972552
1314275141.45947766,-0.36982220,0.48419014,-0.81049401
1314275141.50744987,-0.36923617,0.48495582,-0.81192845
1314275141.54851770,-0.37063366,0.48371944,-0.81279671
1314275141.60442710,-0.36991903,0.48332718,-0.81222123
1314275141.65586400,-0.37031713,0.48406112,-0.80972373
1314275141.70448756,-0.37064624,0.48316926,-0.80853951
1314275141.75646210,-0.36853248,0.48494342,-0.81148934
1314275141.79661989,-0.36978090,0.48609561,-0.81183511
1314275141.85645914,-0.36829484,0.48416683,-0.80987483
1314275141.90774488,-0.37024727,0.48429963,-0.80852509
1314275141.95645213,-0.37040597,0.48319662,-0.81131756
1314275142.00842667,-0.37063861,0.48435003,-0.81280166
1314275142.05551958,-0.36850753,0.48481274,-0.81108820
1314275142.10590553,-0.37054858,0.48410541,-0.81359231
1314275142.15647221,-0.36985320,0.48306271,-0.81115204
1314275142.20745087,-0.36871779,0.48203364,-0.81041491
1314275142.25645900,-0.36866742,0.48481888,-0.81149614
1314275142.29644084,-0.36842951,0.48406667,-0.81214166
1314275142.35643649,-0.36861461,0.48417914,-0.81069082
1314275142.40842772,-0.37028727,0.48329985,-0.80931753
1314275142.45645857,-0.37096870,0.48358428,-0.81161845
1314275142.50744176,-0.36944833,0.48343638,-0.81113172
1314275142.55649424,-0.37025902,0.48382258,-0.81104797
1314275142.60843515,-0.36902019,0.48395598,-0.81297213
1314275142.65541720,-0.37014496,0.48458079,-0.81131291
1314275142.70742393,-0.37065104,0.48180941,-0.81105536
1314275142.75641704,-0.37105748,0.48372719,-0.81308681
1314275142.80589175,-0.36943731,0.48406392,-0.81086987
1314275142.85545111,-0.37088162,0.48371801,-0.81241208
1314275142.90449286,-0.37202144,0.48321235,-0.81114411
1314275142.95644879,-0.37110275,0.48232621,-0.81174970
1314275143.00850368,-0.36912248,0.48468223,-0.81005889
1314275143.05702972,-0.37015992,0.48445773,-0.81157875
1314275143.10429931,-0.36991790,0.48521587,-0.81196934
1314275143.15562129,-0.36927247,0.48342720,-0.81045693
1314275143.20445323,-0.37043422,0.48267388,-0.80958718
1314275143.25549722,-0.37093270,0.48508853,-0.81083000
1314275143.29556918,-0.36952600,0.48521423,-0.81221282
1314275143.35734177,-0.36849454,0.48518804,-0.81082433
1314275143.40454674,-0.36967391,0.48572180,-0.81235796
1314275143.45646453,-0.37114787,0.48294005,-0.81016165
1314275143.50418782,-0.36982921,0.48406556,-0.81062639
1314275143.55550838,-0.37114054,0.48409644,-0.81216377
1314275143.60413742,-0.37042186,0.48420709,-0.81145889
1314275143.65645742,-0.37128589,0.48218644,-0.81029683
1314275143.70419121,-0.36912259,0.48266739,-0.81030977
1314275143.75664997,-0.36914444,0.48443457,-0.81045711
1314275143.80750442,-0.37029397,0.48319963,-0.81171000
1314275143.85546803,-0.37139046,0.48434719,-0.81178117
1314275143.90448165,-0.37104279,0.48382586,-0.81056100
1314275143.95585132,-0.36939353,0.48254439,-0.81032437
1314275144.00750852,-0.37066093,0.48307058,-0.81106532
1314275144.05660248,-0.36919931,0.48431912,-0.81138992
1314275144.10414982,-0.36948752,0.48329350,-0.80953771
1314275144.15647864,-0.37036112,0.48255840,-0.81064558
1314275144.20746422,-0.36924678,0.48636749,-0.81419939
1314275144.25643778,-0.36987320,0.48256284,-0.81154829
1314275144.29647064,-0.37000200,0.48470381,-0.81117272
1314275144.35567808,-0.36989903,0.48382705,-0.81182504
1314275144.40445209,-0.36878777,0.48378560,-0.80910259
1314275144.45663500,-0.36926386,0.48226774,-0.80818796
1314275144.50790787,-0.37108466,0.48408574,-0.81123000
1314275144.55672860,-0.36887953,0.48430684,-0.81057394
1314275144.60452342,-0.36990434,0.48342586,-0.80969542
1314275144.65646482,-0.37181872,0.48181280,-0.81019157
1314275144.70750570,-0.37037030,0.48366907,-0.80839449
1314275144.75557446,-0.36863860,0.48317629,-0.81121641
1314275144.79645634,-0.36970708,0.48582962,-0.81063253
1314275144.85544419,-0.36910459,0.48341951,-0.80991554
1314275144.90447021,-0.37189960,0.48495203,-0.80889022
1314275144.95647168,-0.36914280,0.48315054,-0.80832052
1314275145.00747323,-0.36988810,0.48344719,-0.81168860
1314275145.04882050,-0.36990327,0.48430714,-0.80956894
1314275145.10766602,-0.36941245,0.48292580,-0.81059414
1314275145.15611720,-0.37018245,0.48416129,-0.80745691
1314275145.20848298,-0.36947551,0.48379493,-0.80927485
1314275145.25653458,-0.36992785,0.48546964,-0.81210470
1314275145.29563856,-0.36918730,0.48482054,-0.81112707
1314275145.35644698,-0.36814588,0.48454058,-0.80960321
1314275145.40862322,-0.36994550,0.48353520,-0.80810338
1314275145.45555854,-0.36968166,0.48252621,-0.80834669
1314275145.50843191,-0.36878580,0.48353335,-0.80910057
1314275145.55546236,-0.36952642,0.48317504,-0.81020367
1314275145.60446072,-0.37102175,0.48520705,-0.81003833
1314275145.65644526,-0.36976141,0.48354888,-0.80955523
1314275145.70758009,-0.36835116,0.48113090,-0.80892497
1314275145.75512743,-0.36943349,0.48554990,-0.80835497
1314275145.79758978,-0.37082371,0.48446250,-0.81135082
1314275145.85645270,-0.36854073,0.48492056,-0.80936277
1314275145.90448713,-0.37208986,0.48267284,-0.80782068
1314275145.95647597,-0.37063423,0.48367068,-0.80827665
1314275146.00443149,-0.36894357,0.48530209,-0.80925566
1314275146.05550289,-0.37063488,0.48482859,-0.81041223
1314275146.10845542,-0.36853868,0.48567575,-0.80923533
1314275146.15645719,-0.36922592,0.48251235,-0.80752295
1314275146.20750976,-0.36937085,0.48264155,-0.80766511
1314275146.25646210,-0.36980617,0.48519450,-0.81010175
1314275146.29653740,-0.36909959,0.48379636,-0.80978513
1314275146.35549664,-0.36873481,0.48516065,-0.80804628
1314275146.40431261,-0.37216091,0.48354349,-0.80663484
1314275146.45645642,-0.37050739,0.48178193,-0.80865419
1314275146.50830245,-0.36834997,0.48402703,-0.80854762
1314275146.55651855,-0.36969048,0.48466867,-0.80823016
1314275146.60464191,-0.36847547,0.48682144,-0.81030369
1314275146.65554094,-0.36927810,0.48199418,-0.80619276
1314275146.70445561,-0.36937281,0.48289379,-0.80766714
1314275146.75568032,-0.36908793,0.48326597,-0.80738771
1314275146.79647827,-0.36954069,0.48290145,-0.80820847
1314275146.85650444,-0.36945850,0.48467317,-0.80888164
1314275146.90817332,-0.37002864,0.48289704,-0.80730581
1314275146.95647359,-0.37020436,0.48492107,-0.80772966
1314275147.00755167,-0.37119895,0.48431057,-0.80857956
1314275147.05543327,-0.36872491,0.48389950,-0.80803639
1314275147.10402322,-0.36997685,0.48137599,-0.80662686
1314275147.15549517,-0.36972988,0.48150358,-0.80701250
1314275147.20444751,-0.37212086,0.48154542,-0.80847871
1314275147.25558710,-0.36979324,0.48456240,-0.80996341
1314275147.30746698,-0.36860895,0.48339805,-0.80842483
1314275147.35653996,-0.37041423,0.48317376,-0.80919093
1314275147.40450120,-0.36829764,0.48656002,-0.80962694
1314275147.45644045,-0.36995158,0.48227710,-0.80836028
1314275147.50445652,-0.36882576,0.48253357,-0.80989301
1314275147.55542421,-0.36950538,0.48455623,-0.80968100
1314275147.60459304,-0.37169075,0.48181278,-0.81031722
1314275147.65454531,-0.36888883,0.48340270,-0.80857378
1314275147.70755053,-0.36983252,0.48341212,-0.80849481
1314275147.75643635,-0.36942545,0.48255050,-0.81085795
1314275147.80747366,-0.36865082,0.48365790,-0.80909377
1314275147.85677600,-0.37174451,0.48358604,-0.81099814
1314275147.90836883,-0.37046516,0.48255387,-0.81011975
1314275147.95645165,-0.36871278,0.48241046,-0.81028444
1314275148.00842404,-0.37026197,0.48420095,-0.81105095
1314275148.05547523,-0.37031987,0.48345646,-0.81211215
1314275148.10748911,-0.37176886,0.48155141,-0.80938917
1314275148.15645075,-0.37050909,0.48205855,-0.81091619
1314275148.20860434,-0.36803153,0.48532316,-0.81212825
1314275148.25554538,-0.37053296,0.48307055,-0.81119096
1314275148.29644084,-0.36757892,0.48367283,-0.81155837
